(163484) = 2002 SP5

Discovered at Palomar on 2002-09-27 by NEAT.

Orbit

Orbit type: Main Belt

Note: WebGL enabled browser required.

epoch2023-09-13.0
epoch JD2460200.5
perihelion date2021-10-01.98566
perihelion JD2459489.48566
argument of perihelion (°)320.53022
ascending node (°)175.18461
inclination (°)10.04006
eccentricity0.1275121
perihelion distance (AU)2.7945626
Tisserand w.r.t. Jupiter3.2
ΔV w.r.t. Earth (km/sec)10.9
semimajor axis (AU)3.2029813
mean anomaly (°)122.25049
mean daily motion (°/day)0.17193820
aphelion distance (AU)3.611
period (years)5.73
P-vector [x]-0.71669063
P-vector [y]0.67579574
P-vector [z]0.17220529
Q-vector [x]-0.69723767
Q-vector [y]-0.69952636
Q-vector [z]-0.15659665
absolute magnitude14.68
phase slope0.15
uncertainty0
referenceMPEC 2023-X102
observations used1129
oppositions17
arc length (days)9802
first opposition used1996
last opposition used2023
residual rms (arc-secs)0.69
perturbers coarse indicatorM-v
perturbers precise indicator003Ek
first observation date used1996-09-05.0
last observation date used2023-07-08.0
computer nameMPCLINUX
JD of orbit computation2456966.886887
perihelion JD uncertainty (days)1.7828E-04
argument of perihelion uncertainty (°)4.0116E-05
ascending node uncertainty (°)2.7100E-05
inclination uncertainty (°)8.0818E-06
eccentricity uncertainty 4.3929E-08
perihelion distance uncertainty (AU)1.4072E-07
Minimum Orbit Intersection Distances (in AU)
for orbit epoch: 2460200.5, reference: E2023-XA2
Mercury2.45652
Venus2.08826
Earth1.81491
Mars1.16197
Jupiter1.44928
Saturn6.01139
Uranus15.5734
Neptune26.4042

Observations

1157 total observations over interval: 1996 09 05.36644 – 2023 07 08.378731
These data are available for download (format description).

Date (UT) J2000 RA J2000 Dec Magn Location Ref
1996 09 05.36644 23 57 19.86 -00 06 40.8 20.0 V 691 – Steward Observatory, Kitt Peak-Spacewatch MPS 131640
1996 09 05.38739 23 57 19.07 -00 06 48.3   691 – Steward Observatory, Kitt Peak-Spacewatch MPS 131640
1996 09 05.40973 23 57 18.25 -00 06 56.6   691 – Steward Observatory, Kitt Peak-Spacewatch MPS 131640
1999 03 18.17697 10 55 25.41 +04 45 12.2 18.5 V 691 – Steward Observatory, Kitt Peak-Spacewatch MPS 131640
1999 03 18.19813 10 55 24.65 +04 45 21.7 18.6 V 691 – Steward Observatory, Kitt Peak-Spacewatch MPS 131640
1999 03 18.21956 10 55 23.78 +04 45 31.9 18.3 V 691 – Steward Observatory, Kitt Peak-Spacewatch MPS 131640
2002 09 07.27355 01 08 04.69 +03 58 29.4 19.2   704 – Lincoln Laboratory ETS, New Mexico MPS 82998
2002 09 07.31559 01 08 03.61 +03 58 16.3 19.7   704 – Lincoln Laboratory ETS, New Mexico MPS 82998
2002 09 07.32973 01 08 03.20 +03 58 11.3 19.4   704 – Lincoln Laboratory ETS, New Mexico MPS 82998
2002 09 15.32381 01 04 18.20 +03 12 32.0 21.5 R 683 – Goodricke-Pigott Observatory, Tucson MPS 69932
2002 09 15.34840 01 04 17.42 +03 12 22.7 20.5 R 683 – Goodricke-Pigott Observatory, Tucson MPS 69932
2002 09 27.18552 00 57 18.51 +01 56 53.1 20.2   644 – Palomar Mountain/NEAT MPS 63661
2002 09 27.25307 00 57 15.84 +01 56 26.4 19.4   644 – Palomar Mountain/NEAT MPS 63661
2002 09 27.31560 00 57 13.36 +01 56 01.6 19.6   644 – Palomar Mountain/NEAT MPS 63661
2002 09 28.18529 00 56 39.71 +01 50 15.9 19.1   644 – Palomar Mountain/NEAT MPS 63661
2002 09 28.25439 00 56 36.96 +01 49 48.5 18.9   644 – Palomar Mountain/NEAT MPS 63661
2002 09 28.31756 00 56 34.43 +01 49 23.4 18.8   644 – Palomar Mountain/NEAT MPS 63661
2002 09 30.27782 00 55 17.31 +01 36 22.2 19.0   704 – Lincoln Laboratory ETS, New Mexico MPS 63661
2002 09 30.30638 00 55 16.12 +01 36 10.3 18.9   704 – Lincoln Laboratory ETS, New Mexico MPS 63661
2002 09 30.32061 00 55 15.54 +01 36 04.2 19.3   704 – Lincoln Laboratory ETS, New Mexico MPS 63661
2002 09 30.33490 00 55 14.92 +01 35 58.9 19.6   704 – Lincoln Laboratory ETS, New Mexico MPS 63661
2002 10 01.51730 00 54 27.78 +01 28 07.2 21.4   608 – Haleakala-AMOS MPS 63661
2002 10 01.52829 00 54 27.33 +01 28 02.5 20.7   608 – Haleakala-AMOS MPS 63661
2002 10 01.53882 00 54 26.92 +01 27 59.3 21.3   608 – Haleakala-AMOS MPS 63661
2002 10 02.33286 00 53 54.99 +01 22 39.9 19.3   704 – Lincoln Laboratory ETS, New Mexico MPS 63661
2002 10 02.34881 00 53 54.44 +01 22 34.0 18.9   704 – Lincoln Laboratory ETS, New Mexico MPS 63661
2002 10 02.36397 00 53 53.79 +01 22 28.1 19.5   704 – Lincoln Laboratory ETS, New Mexico MPS 63661
2002 10 02.37907 00 53 53.19 +01 22 20.7 19.0   704 – Lincoln Laboratory ETS, New Mexico MPS 63661
2002 10 05.345430 00 51 53.299 +01 02 39.10 19.46 V 645 – Apache Point-Sloan Digital Sky Survey MPS 80124
2002 10 05.348902 00 51 53.154 +01 02 37.65 20.13   645 – Apache Point-Sloan Digital Sky Survey MPS 80124
2002 10 11.24334 00 47 53.77 +00 24 13.0 19.0   704 – Lincoln Laboratory ETS, New Mexico MPS 63661
2002 10 11.25836 00 47 53.14 +00 24 05.2 19.1   704 – Lincoln Laboratory ETS, New Mexico MPS 63661
2002 10 11.27327 00 47 52.53 +00 23 58.9 19.6   704 – Lincoln Laboratory ETS, New Mexico MPS 63661
2002 10 11.28835 00 47 51.88 +00 23 54.8 19.7   704 – Lincoln Laboratory ETS, New Mexico MPS 63661
2002 10 11.30333 00 47 51.24 +00 23 47.4 19.6   704 – Lincoln Laboratory ETS, New Mexico MPS 63661
2002 11 06.08771 00 33 11.41 -01 50 56.3 20.2   644 – Palomar Mountain/NEAT MPS 65955
2002 11 06.10873 00 33 10.90 -01 51 01.0 20.7   644 – Palomar Mountain/NEAT MPS 65955
2002 11 06.12959 00 33 10.35 -01 51 05.7 20.1   644 – Palomar Mountain/NEAT MPS 65955
2005 03 08.33017 12 56 36.33 -03 12 33.5 18.4 R 699 – Lowell Observatory-LONEOS MPS 133100
2005 03 08.36909 12 56 35.21 -03 12 17.1   699 – Lowell Observatory-LONEOS MPS 133100
2005 03 08.38856 12 56 34.69 -03 12 09.3   699 – Lowell Observatory-LONEOS MPS 133100
2005 03 13.33726 12 54 02.97 -02 37 05.3 18.3   703 – Catalina Sky Survey MPS 130702
2005 03 13.34573 12 54 02.70 -02 37 02.4 18.1   703 – Catalina Sky Survey MPS 130702
2005 03 13.35421 12 54 02.36 -02 36 58.9 18.3   703 – Catalina Sky Survey MPS 130702
2005 03 13.36266 12 54 02.11 -02 36 54.4 18.3   703 – Catalina Sky Survey MPS 130702
2005 04 03.92530 12 40 15.96 +00 07 58.2 18.2 R 106 – Crni Vrh MPS 131640
2005 04 03.93101 12 40 15.73 +00 08 01.4 18.0 R 106 – Crni Vrh MPS 131640
2005 04 03.93672 12 40 15.51 +00 08 03.4 18.2 R 106 – Crni Vrh MPS 131640
2005 04 04.33602 12 39 59.43 +00 11 03.5 17.9 R 703 – Catalina Sky Survey MPS 130702
2005 04 04.34412 12 39 59.04 +00 11 06.8 17.9 R 703 – Catalina Sky Survey MPS 130702
2005 04 04.35220 12 39 58.68 +00 11 10.5 17.7 R 703 – Catalina Sky Survey MPS 130702
2005 04 04.36027 12 39 58.35 +00 11 14.6 17.8 R 703 – Catalina Sky Survey MPS 130702
2005 04 05.23377 12 39 23.68 +00 17 43.5 18.3 R 699 – Lowell Observatory-LONEOS MPS 130702
2005 04 05.25003 12 39 22.99 +00 17 50.2   699 – Lowell Observatory-LONEOS MPS 130702
2005 04 05.26628 12 39 22.30 +00 17 58.0   699 – Lowell Observatory-LONEOS MPS 130702
2005 04 05.28252 12 39 21.62 +00 18 06.8   699 – Lowell Observatory-LONEOS MPS 130702
2005 04 05.34522 12 39 19.07 +00 18 33.0 18.6   704 – Lincoln Laboratory ETS, New Mexico MPS 130702
2005 04 05.35691 12 39 18.56 +00 18 37.5 18.5   704 – Lincoln Laboratory ETS, New Mexico MPS 130702
2005 04 05.36836 12 39 18.11 +00 18 42.4 18.7   704 – Lincoln Laboratory ETS, New Mexico MPS 130702
2005 04 05.37864 12 39 17.66 +00 18 47.8 18.8   704 – Lincoln Laboratory ETS, New Mexico MPS 130702
2005 04 09.32577 12 36 42.73 +00 47 17.4 18.6 R 699 – Lowell Observatory-LONEOS MPS 131640
2005 04 09.34197 12 36 42.10 +00 47 25.0   699 – Lowell Observatory-LONEOS MPS 131640
2005 04 09.35819 12 36 41.38 +00 47 31.5   699 – Lowell Observatory-LONEOS MPS 131640
2005 04 09.37443 12 36 40.80 +00 47 38.3   699 – Lowell Observatory-LONEOS MPS 131640
2005 04 13.22280 12 34 16.44 +01 13 56.2 17.7 R G98 – Calvin-Rehoboth Observatory, Rehoboth MPS 132573
2005 04 13.24005 12 34 15.77 +01 14 02.9 17.3 R G98 – Calvin-Rehoboth Observatory, Rehoboth MPS 131640
2005 04 13.26138 12 34 14.97 +01 14 11.4 17.9 R G98 – Calvin-Rehoboth Observatory, Rehoboth MPS 132573
2005 04 13.27468 12 34 14.47 +01 14 16.6 18.3   704 – Lincoln Laboratory ETS, New Mexico MPS 131640
2005 04 13.27814 12 34 14.33 +01 14 18.0 17.1 R G98 – Calvin-Rehoboth Observatory, Rehoboth MPS 131640
2005 04 13.28692 12 34 14.01 +01 14 21.6 18.8   704 – Lincoln Laboratory ETS, New Mexico MPS 131640
2005 04 13.29824 12 34 13.55 +01 14 26.1 18.8   704 – Lincoln Laboratory ETS, New Mexico MPS 131640
2005 04 13.29987 12 34 13.51 +01 14 27.0 18.1 R G98 – Calvin-Rehoboth Observatory, Rehoboth MPS 132573
2005 04 13.30911 12 34 13.19 +01 14 31.1 19.0   704 – Lincoln Laboratory ETS, New Mexico MPS 131640
2005 04 13.31678 12 34 12.87 +01 14 33.4 17.4 R G98 – Calvin-Rehoboth Observatory, Rehoboth MPS 131640
2005 04 13.32106 12 34 12.75 +01 14 35.7 18.7   704 – Lincoln Laboratory ETS, New Mexico MPS 131640
2005 04 13.33816 12 34 12.06 +01 14 42.3 18.6 R G98 – Calvin-Rehoboth Observatory, Rehoboth MPS 132573
2005 04 13.35491 12 34 11.44 +01 14 48.4 17.5 R G98 – Calvin-Rehoboth Observatory, Rehoboth MPS 131640
2005 04 13.37626 12 34 10.64 +01 14 57.4 18.6 R G98 – Calvin-Rehoboth Observatory, Rehoboth MPS 132573
2005 04 13.39328 12 34 10.00 +01 15 03.6 17.5 R G98 – Calvin-Rehoboth Observatory, Rehoboth MPS 131640
2005 05 02.13089 12 25 13.24 +02 53 28.8 19.4 V 691 – Steward Observatory, Kitt Peak-Spacewatch MPS 133296
2005 05 02.14672 12 25 12.92 +02 53 32.5 19.3 V 691 – Steward Observatory, Kitt Peak-Spacewatch MPS 133296
2005 05 02.16267 12 25 12.58 +02 53 36.1 19.3 V 691 – Steward Observatory, Kitt Peak-Spacewatch MPS 133296
2005 05 04.17048 12 24 35.97 +03 00 46.5 18.7   644 – Palomar Mountain/NEAT MPS 133296
2005 05 04.17295 12 24 35.92 +03 00 46.9 19.2   644 – Palomar Mountain/NEAT MPS 133296
2005 05 04.19148 12 24 35.59 +03 00 50.7 18.7   644 – Palomar Mountain/NEAT MPS 133296
2005 05 04.19394 12 24 35.52 +03 00 51.3 19.4   644 – Palomar Mountain/NEAT MPS 133296
2005 05 04.21110 12 24 35.22 +03 00 54.7 18.7   644 – Palomar Mountain/NEAT MPS 133296
